Location: Zwardon
(49.5170°N, 18.9830°E)
Time: 01:16:11
(UTC+01:00)

X-37B - Pass Details

Date: 14 December 2022
Orbit: 277 x 277 km, 45.0° (Epoch: 01 November)

Event Time Altitude Azimuth Distance (km) Brightness Sun altitude
Rises 17:01:34 0° 255° (WSW) 1,912 6.2 -11.7°
Reaches altitude 10° 17:03:36 10° 243° (WSW) 1,100 4.4 -12.1°
Maximum altitude 17:05:46 28° 180° (S) 566 1.6 -12.4°
Enters shadow 17:07:19 15° 126° (SE) 881 2.1 -12.6°
